SCP
0 0 0 0 0 0 0 0 0 0 0 0 0 0 0 0 0 0 0 0 0 0 0 0 0 0 0 0 0 0 0 0 0 0 0 0 0 0 0 0 0 0 0
0 0 0 0 0 0 0 0 0 0 0 0 0 0 0 0 0 0 0 0 0 0 0 0 0 0 0 0 0 0 0 0 0 0 0 0 0 0 0 0 0 0 0
0 0 0 0 0 0 0 0 0 0 0 0 0 0 0 0 0 0 0 0 0 0 0 0 0 0 0 0 0 0 0 0 0 0 0 0 0 0 0 0 0 0 0
0 0 0 0 0 0 0 0 0 0 0 0 0 0 0 0 0 0 0 0 0 0 0 0 0 0 0 0 0 0 0 0 0 0 0 0 0 0 0 0 0 0 0
0 0 0 0 0 0 0 0 0 0 0 0 0 0 0 0 0 0 0 0 0 0 0 0 0 0 0 0 0 0 0 0 0 0 0 0 0 0 0 0 0 0 0
0 0 0 0 0 0 0 0 0 0 0 0 0 0 0 0 0 0 0 0 0 0 0 0 0 0 0 0 0 0 0 0 0 0 0 0 0 0 0 0 0 0 0
0 0 0 0 0 0 0 0 0 0 0 0 0 0 0 0 0 0 0 0 0 0 0 0 0 0 0 0 0 0 0 0 0 0 0 0 0 0 0 0 0 0 0
0 0 0 0 0 0 0 0 0 0 0 0 0 0 0 0 0 0 0 0 0 0 0 0 0 0 0 0 0 0 0 0 0 0 0 0 0 0 0 0 0 0 0
0 0 0 0 0 0 0 0 0 0 0 0 0 0 0 0 0 0 0 0 0 0 0 0 0 0 0 0 0 0 0 0 0 0 0 0 0 0 0 0 0 0 0
0 0 0 0 0 0 0 0 0 0 0 0 0 0 0 0 0 0 0 0 0 0 0 0 0 0 0 0 0 0 0 0 0 0 0 0 0 0 0 0 0 0 0
0 0 0 0 0 0 0 0 0 0 0 0 0 0 0 0 0 0 0 0 0 0 0 0 0 0 0 0 0 0 0 0 0 0 0 0 0 0 0 0 0 0 0
0 0 0 0 0 0 0 0 0 0 0 0 0 0 0 0 0 0 0 0 0 0 0 0 0 0 0 0 0 0 0 0 0 0 0 0 0 0 0 0 0 0 0
0 0 0 0 0 0 0 0 0 0 0 0 0 0 0 0 0 0 0 0 0 0 0 0 0 0 0 0 0 0 0 0 0 0 0 0 0 0 0 0 0 0 0
0 0 0 0 0 0 0 0 0 0 0 0 0 0 0 0 0 0 0 0 0 0 0 0 0 0 0 0 0 0 0 0 0 0 0 0 0 0 0 0 0 0 0
0 0 0 0 0 0 0 0 0 0 0 0 0 0 0 0 0 0 0 0 0 0 0 0 0 0 0 0 0 0 0 0 0 0 0 0 0 0 0 0 0 0 0
0 0 0 0 0 0 0 0 0 -0 -0 -0 -0 0 0 0 0 0 0 0 0 0 0 0 0 0 0 0 0 0 0 0 0 0 0 0 0 0 0 0 0 0 0
0 0 0 0 0 0 0 0 0 0 0 0 0 0 0 0 0 0 0 0 0 0 0 0 0 0 0 0 0 0 0 0 0 0 0 0 0 0 0 0 0 0 0
0 0 0 0 0 0 0 0 0 0 0 0 0 0 0 0 0 0 0 0 0 0 0 0 0 0 0 0 0 0 0 0 0 0 0 0 0 0 0 0 0 0 0
0 0 0 0 0 0 0 0 0 0 0 0 0 0 0 0 0 0 0 0 0 0 0 0 0 0 0 0 0 0 0 0 0 0 0 0 0 0 0 0 0 0 0
0 0 0 0 0 0 0 0 0 0 0 0 0 0 0 0 0 0 0 0 0 0 0 0 0 0 0 0 0 0 0 0 0 0 0 0 0 0 0 0 0 0 0
0 0 0 0 0 0 0 0 0 0 0 0 0 0 0 0 0 0 0 0 0 0 0 0 0 0 0 0 0 0 0 0 0 0 0 0 0 0 0 0 0 0 0
0 0 0 0 0 0 0 0 0 0 0 0 0 0 0 0 0 0 0 0 0 0 0 0 0 0 0 0 0 0 0 0 0 0 0 0 0 0 0 0 0 0 0
0 0 0 0 0 0 0 0 0 0 0 0 0 0 0 0 0 0 0 0 0 0 0 0 0 0 0 0 0 0 0 0 0 0 0 0 0 0 0 0 0 0 0
0 0 0 0 0 0 0 0 0 0 0 0 0 0 0 0 0 0 0 0 0 0 0 0 0 0 0 0 0 0 0 0 0 0 0 0 0 0 0 0 0 0 0
0 0 0 0 0 0 0 0 0 0 0 0 0 0 0 0 0 0 0 0 0 0 0 0 0 0 0 0 0 0 0 0 0 0 0 0 0 0 0 0 0 0 0
0 0 0 0 0 0 0 0 0 0 0 0 0 0 0 0 0 0 0 0 0 0 0 0 0 0 0 0 0 0 0 0 0 0 0 0 0 0 0 0 0 0 0
Wind_Speed_500mb
25 25 21 20 17 14 10 7 2 3 8 13 17 21 25 30 35 39 43 45 48 52 54 57 61 62 63 65 67 68 72 72 85 109 95 95 94 88 80 74 73 73 72
23 20 16 14 10 7 5 4 7 10 13 16 19 22 25 30 34 39 42 44 49 52 54 58 61 63 65 67 66 71 70 72 74 92 91 90 92 86 84 81 79 78 78
18 16 14 12 10 9 10 12 13 15 18 21 24 27 29 33 35 39 43 45 47 50 53 56 58 60 63 65 65 66 68 70 71 79 95 88 92 90 89 88 84 82 80
18 16 14 12 11 10 12 14 16 19 23 25 28 31 34 37 40 44 48 52 54 55 56 58 60 62 63 65 68 69 68 68 70 77 87 90 90 92 89 89 91 85 82
15 13 11 10 11 12 14 16 20 23 27 31 34 37 41 45 50 54 58 62 65 68 68 68 68 67 66 65 66 66 64 66 69 72 81 86 87 87 87 89 90 87 87
11 9 8 7 9 12 16 18 22 27 30 33 37 40 43 47 52 56 61 63 66 70 75 75 75 75 74 70 65 60 57 61 65 69 77 81 86 83 83 84 83 84 81
8 7 8 9 11 14 18 23 26 30 34 37 42 46 48 50 56 60 64 68 71 72 75 76 79 76 75 73 71 69 65 57 56 63 73 76 79 76 74 76 78 80 83
6 4 5 8 13 18 22 28 33 38 43 47 49 53 57 57 61 64 69 72 75 75 76 76 76 77 72 71 70 70 67 63 58 54 57 67 70 72 68 69 71 73 77
3 3 9 15 20 26 31 36 42 48 51 55 58 61 65 66 67 70 73 77 78 79 79 77 74 73 70 63 59 63 63 61 57 56 56 58 62 63 62 64 66 64 67
3 9 16 23 29 34 40 45 50 56 60 62 64 64 66 69 67 69 72 75 78 79 78 75 70 64 59 52 51 53 59 59 60 60 58 55 48 51 49 49 50 46 54
9 16 22 28 34 41 46 51 56 61 64 66 68 66 67 68 69 69 71 73 72 74 74 72 64 54 49 43 42 48 52 55 54 50 42 37 37 37 36 34 31 27 38
15 22 28 33 38 42 47 49 52 58 63 66 69 70 67 67 67 65 66 65 63 63 66 63 57 46 39 41 44 42 40 39 33 32 33 34 37 39 34 30 27 22 23
18 23 26 30 35 40 44 49 53 55 59 63 67 70 72 71 69 67 64 59 56 54 54 54 48 40 41 41 34 31 30 28 30 30 30 32 29 28 24 24 23 17 14
21 22 25 28 32 37 42 47 52 54 58 62 67 72 74 74 71 64 61 58 53 49 49 45 39 40 39 33 28 26 26 26 25 25 26 28 21 22 23 18 17 14 8
19 20 24 28 33 37 41 47 51 53 59 65 66 69 72 76 72 61 58 55 53 46 46 45 40 37 34 29 26 20 22 21 20 21 23 22 18 20 19 14 6 2 3
22 23 26 29 33 38 45 49 48 55 59 61 64 65 68 67 67 59 57 50 48 45 41 47 40 33 31 28 25 22 20 18 19 21 21 20 15 12 10 7 4 5 4
24 26 30 33 37 42 47 53 59 56 59 60 62 63 61 64 55 56 52 52 52 46 43 45 39 36 33 31 27 24 22 21 20 17 14 11 12 11 7 6 2 3 4
29 31 35 38 43 47 49 53 57 64 71 72 64 63 62 54 47 49 52 53 56 46 46 45 46 44 39 37 31 26 22 18 16 15 13 12 11 10 9 9 10 10 10
35 37 41 44 48 52 53 56 58 62 67 72 74 69 61 54 46 47 47 53 53 51 49 51 53 49 46 41 36 30 26 22 20 17 16 16 16 16 16 15 15 15 15
40 42 45 48 50 53 55 58 59 60 64 67 68 64 60 56 57 57 55 52 53 54 52 51 52 48 45 41 36 32 30 26 23 23 21 20 19 19 20 20 20 20 20
44 46 49 51 51 52 54 55 56 58 60 61 62 57 47 54 59 57 55 54 54 54 52 50 47 44 41 39 37 34 32 28 26 26 24 23 23 25 26 27 27 27 26
47 50 49 49 50 51 52 53 54 56 57 59 59 56 51 55 55 54 52 51 51 50 49 47 43 40 38 36 35 33 32 27 28 27 26 27 29 30 30 29 27 25 23
48 48 46 46 48 49 50 50 52 53 55 55 54 54 51 50 48 48 47 47 47 45 43 41 39 37 35 35 34 31 27 29 30 30 29 31 33 32 30 27 23 20 19
45 43 42 43 44 44 47 48 48 49 50 50 49 48 48 48 46 44 42 42 41 40 38 37 37 38 38 37 34 31 32 33 34 36 38 37 37 33 28 23 21 20 19
41 39 39 41 42 43 44 43 44 45 47 48 48 47 46 45 44 42 40 39 39 39 38 38 38 38 39 40 41 40 40 42 45 43 39 40 35 30 26 24 23 21 21
37 37 38 40 40 40 41 42 42 44 46 46 47 47 47 46 44 42 41 40 39 39 39 39 39 39 40 41 42 44 46 46 42 40 42 37 32 31 30 28 27 25 26
Wind_Direction_500mb
110 107 107 106 104 104 103 100 85 298 297 301 302 301 299 298 298 298 297 296 295 295 295 293 292 291 288 287 286 285 285 283 284 287 290 293 294 296 296 296 293 292 291
125 121 119 111 108 110 93 49 13 350 342 335 332 326 322 319 317 314 310 309 308 306 306 302 300 298 296 294 290 288 285 286 287 289 293 294 295 297 295 294 293 292 292
128 125 119 114 103 76 51 34 18 4 353 347 341 335 330 325 321 317 317 317 314 312 311 309 307 304 301 298 294 290 288 287 290 289 291 293 293 295 296 295 295 296 296
128 117 106 94 76 51 32 14 3 353 346 339 334 331 330 328 326 324 321 320 319 317 315 313 311 309 306 303 298 293 289 286 285 284 285 289 291 294 295 296 298 299 299
126 114 99 71 45 24 12 2 354 346 341 338 336 335 334 331 329 327 324 323 321 319 318 316 314 311 309 305 301 298 293 288 288 287 287 290 292 295 297 300 299 301 299
118 105 80 51 22 1 355 347 343 338 335 332 330 330 329 327 323 322 320 318 317 316 315 313 311 309 308 306 302 297 292 290 288 291 291 291 294 297 298 299 299 300 297
115 75 44 20 2 351 345 337 335 331 329 327 325 324 324 325 322 321 319 318 317 317 314 313 310 308 305 302 300 299 298 293 288 292 291 293 295 297 297 294 293 292 291
113 63 15 351 337 333 331 330 328 325 322 320 320 321 320 322 319 318 317 316 314 314 312 311 309 307 305 302 301 300 302 303 303 298 290 289 292 295 297 294 292 288 287
144 341 330 326 323 323 324 322 319 316 315 317 319 319 318 319 318 316 315 314 314 314 314 314 312 309 308 305 301 301 303 305 307 304 299 293 292 295 299 298 294 293 287
308 321 319 319 318 318 319 319 319 319 318 317 316 317 317 316 315 315 314 313 314 313 314 313 314 313 310 306 305 307 308 312 312 311 311 309 306 305 303 298 299 287 284
297 309 313 315 318 319 320 321 320 318 317 317 316 317 317 317 316 315 313 313 313 313 314 316 316 316 313 312 310 308 310 311 309 314 322 322 324 320 321 319 310 291 283
302 312 317 318 320 320 320 320 318 318 319 319 319 318 319 320 319 316 311 311 310 311 313 313 313 316 316 314 313 315 315 315 319 325 330 329 326 325 325 330 330 311 288
297 305 308 313 316 317 318 319 320 319 318 318 318 319 320 321 321 320 316 315 313 311 310 309 310 311 312 313 314 318 323 331 328 331 325 325 327 336 343 342 331 327 309
293 296 303 309 312 315 317 320 321 324 322 322 321 320 318 317 318 319 319 316 314 312 311 310 310 310 312 314 320 321 320 327 336 335 337 341 343 352 350 342 321 320 303
278 288 296 305 311 316 319 321 322 323 322 323 323 320 319 318 316 312 311 309 312 310 308 308 308 312 315 318 321 327 315 319 329 334 334 336 345 354 359 18 39 346 138
268 281 294 305 311 317 320 320 320 320 321 321 320 317 315 313 311 300 301 299 301 303 297 299 303 305 309 313 314 317 321 328 334 341 345 349 353 351 5 38 106 56 146
266 281 294 301 308 312 313 315 318 320 318 317 316 313 311 309 305 295 297 295 294 294 288 292 293 295 303 307 307 308 307 310 317 327 349 6 36 52 63 80 84 336 297
267 282 291 297 302 306 309 311 314 317 317 318 318 315 312 309 299 291 292 291 290 287 286 286 287 286 288 293 293 295 298 301 308 313 305 294 292 294 296 300 303 302 303
272 285 295 299 301 303 305 307 311 314 315 317 318 318 318 309 301 299 293 287 288 287 282 274 279 281 279 281 281 283 283 285 290 295 297 295 292 294 297 301 301 299 300
277 288 293 296 298 301 303 306 311 313 314 316 317 317 315 309 304 302 298 292 286 285 282 277 276 275 273 270 269 270 272 277 281 285 286 288 289 291 293 294 293 291 290
280 288 291 293 297 300 304 308 310 312 312 312 313 312 308 300 301 298 294 289 287 285 283 278 275 272 268 265 264 265 268 270 272 275 278 282 285 288 288 287 287 287 286
281 286 289 294 298 300 303 307 310 310 312 312 312 309 304 301 300 297 293 291 289 287 284 279 274 269 265 262 261 262 264 269 273 274 279 285 289 290 289 287 284 280 277
278 283 289 294 296 300 305 308 309 310 310 309 307 307 306 304 301 298 295 292 290 288 285 281 275 270 265 262 262 265 269 272 273 277 284 291 292 289 286 280 274 270 269
274 282 287 292 297 302 306 308 309 308 306 305 305 305 306 306 304 301 298 294 291 287 284 280 278 275 271 267 264 264 268 271 276 279 285 289 287 281 273 265 263 264 265
277 284 290 295 301 305 307 308 307 306 304 304 303 304 305 303 303 302 299 296 292 288 285 282 281 279 278 276 273 270 269 273 277 281 284 283 278 269 266 265 263 262 263
280 286 292 296 300 303 304 305 306 305 303 302 302 302 301 300 299 298 296 294 292 289 286 284 282 281 280 279 278 277 277 278 280 282 280 275 266 263 263 263 263 262 261
Wind_Speed_850mb
25 25 21 20 17 14 10 7 2 3 8 13 17 21 25 30 35 39 43 45 48 52 54 57 61 62 63 65 67 68 72 72 85 109 95 95 94 88 80 74 73 73 72
23 20 16 14 10 7 5 4 7 10 13 16 19 22 25 30 34 39 42 44 49 52 54 58 61 63 65 67 66 71 70 72 74 92 91 90 92 86 84 81 79 78 78
18 16 14 12 10 9 10 12 13 15 18 21 24 27 29 33 35 39 43 45 47 50 53 56 58 60 63 65 65 66 68 70 71 79 95 88 92 90 89 88 84 82 80
18 16 14 12 11 10 12 14 16 19 23 25 28 31 34 37 40 44 48 52 54 55 56 58 60 62 63 65 68 69 68 68 70 77 87 90 90 92 89 89 91 85 82
15 13 11 10 11 12 14 16 20 23 27 31 34 37 41 45 50 54 58 62 65 68 68 68 68 67 66 65 66 66 64 66 69 72 81 86 87 87 87 89 90 87 87
11 9 8 7 9 12 16 18 22 27 30 33 37 40 43 47 52 56 61 63 66 70 75 75 75 75 74 70 65 60 57 61 65 69 77 81 86 83 83 84 83 84 81
8 7 8 9 11 14 18 23 26 30 34 37 42 46 48 50 56 60 64 68 71 72 75 76 79 76 75 73 71 69 65 57 56 63 73 76 79 76 74 76 78 80 83
6 4 5 8 13 18 22 28 33 38 43 47 49 53 57 57 61 64 69 72 75 75 76 76 76 77 72 71 70 70 67 63 58 54 57 67 70 72 68 69 71 73 77
3 3 9 15 20 26 31 36 42 48 51 55 58 61 65 66 67 70 73 77 78 79 79 77 74 73 70 63 59 63 63 61 57 56 56 58 62 63 62 64 66 64 67
3 9 16 23 29 34 40 45 50 56 60 62 64 64 66 69 67 69 72 75 78 79 78 75 70 64 59 52 51 53 59 59 60 60 58 55 48 51 49 49 50 46 54
9 16 22 28 34 41 46 51 56 61 64 66 68 66 67 68 69 69 71 73 72 74 74 72 64 54 49 43 42 48 52 55 54 50 42 37 37 37 36 34 31 27 38
15 22 28 33 38 42 47 49 52 58 63 66 69 70 67 67 67 65 66 65 63 63 66 63 57 46 39 41 44 42 40 39 33 32 33 34 37 39 34 30 27 22 23
18 23 26 30 35 40 44 49 53 55 59 63 67 70 72 71 69 67 64 59 56 54 54 54 48 40 41 41 34 31 30 28 30 30 30 32 29 28 24 24 23 17 14
21 22 25 28 32 37 42 47 52 54 58 62 67 72 74 74 71 64 61 58 53 49 49 45 39 40 39 33 28 26 26 26 25 25 26 28 21 22 23 18 17 14 8
19 20 24 28 33 37 41 47 51 53 59 65 66 69 72 76 72 61 58 55 53 46 46 45 40 37 34 29 26 20 22 21 20 21 23 22 18 20 19 14 6 2 3
22 23 26 29 33 38 45 49 48 55 59 61 64 65 68 67 67 59 57 50 48 45 41 47 40 33 31 28 25 22 20 18 19 21 21 20 15 12 10 7 4 5 4
24 26 30 33 37 42 47 53 59 56 59 60 62 63 61 64 55 56 52 52 52 46 43 45 39 36 33 31 27 24 22 21 20 17 14 11 12 11 7 6 2 3 4
29 31 35 38 43 47 49 53 57 64 71 72 64 63 62 54 47 49 52 53 56 46 46 45 46 44 39 37 31 26 22 18 16 15 13 12 11 10 9 9 10 10 10
35 37 41 44 48 52 53 56 58 62 67 72 74 69 61 54 46 47 47 53 53 51 49 51 53 49 46 41 36 30 26 22 20 17 16 16 16 16 16 15 15 15 15
40 42 45 48 50 53 55 58 59 60 64 67 68 64 60 56 57 57 55 52 53 54 52 51 52 48 45 41 36 32 30 26 23 23 21 20 19 19 20 20 20 20 20
44 46 49 51 51 52 54 55 56 58 60 61 62 57 47 54 59 57 55 54 54 54 52 50 47 44 41 39 37 34 32 28 26 26 24 23 23 25 26 27 27 27 26
47 50 49 49 50 51 52 53 54 56 57 59 59 56 51 55 55 54 52 51 51 50 49 47 43 40 38 36 35 33 32 27 28 27 26 27 29 30 30 29 27 25 23
48 48 46 46 48 49 50 50 52 53 55 55 54 54 51 50 48 48 47 47 47 45 43 41 39 37 35 35 34 31 27 29 30 30 29 31 33 32 30 27 23 20 19
45 43 42 43 44 44 47 48 48 49 50 50 49 48 48 48 46 44 42 42 41 40 38 37 37 38 38 37 34 31 32 33 34 36 38 37 37 33 28 23 21 20 19
41 39 39 41 42 43 44 43 44 45 47 48 48 47 46 45 44 42 40 39 39 39 38 38 38 38 39 40 41 40 40 42 45 43 39 40 35 30 26 24 23 21 21
37 37 38 40 40 40 41 42 42 44 46 46 47 47 47 46 44 42 41 40 39 39 39 39 39 39 40 41 42 44 46 46 42 40 42 37 32 31 30 28 27 25 26
Wind_Direction_850mb
110 107 107 106 104 104 103 100 85 298 297 301 302 301 299 298 298 298 297 296 295 295 295 293 292 291 288 287 286 285 285 283 284 287 290 293 294 296 296 296 293 292 291
125 121 119 111 108 110 93 49 13 350 342 335 332 326 322 319 317 314 310 309 308 306 306 302 300 298 296 294 290 288 285 286 287 289 293 294 295 297 295 294 293 292 292
128 125 119 114 103 76 51 34 18 4 353 347 341 335 330 325 321 317 317 317 314 312 311 309 307 304 301 298 294 290 288 287 290 289 291 293 293 295 296 295 295 296 296
128 117 106 94 76 51 32 14 3 353 346 339 334 331 330 328 326 324 321 320 319 317 315 313 311 309 306 303 298 293 289 286 285 284 285 289 291 294 295 296 298 299 299
126 114 99 71 45 24 12 2 354 346 341 338 336 335 334 331 329 327 324 323 321 319 318 316 314 311 309 305 301 298 293 288 288 287 287 290 292 295 297 300 299 301 299
118 105 80 51 22 1 355 347 343 338 335 332 330 330 329 327 323 322 320 318 317 316 315 313 311 309 308 306 302 297 292 290 288 291 291 291 294 297 298 299 299 300 297
115 75 44 20 2 351 345 337 335 331 329 327 325 324 324 325 322 321 319 318 317 317 314 313 310 308 305 302 300 299 298 293 288 292 291 293 295 297 297 294 293 292 291
113 63 15 351 337 333 331 330 328 325 322 320 320 321 320 322 319 318 317 316 314 314 312 311 309 307 305 302 301 300 302 303 303 298 290 289 292 295 297 294 292 288 287
144 341 330 326 323 323 324 322 319 316 315 317 319 319 318 319 318 316 315 314 314 314 314 314 312 309 308 305 301 301 303 305 307 304 299 293 292 295 299 298 294 293 287
308 321 319 319 318 318 319 319 319 319 318 317 316 317 317 316 315 315 314 313 314 313 314 313 314 313 310 306 305 307 308 312 312 311 311 309 306 305 303 298 299 287 284
297 309 313 315 318 319 320 321 320 318 317 317 316 317 317 317 316 315 313 313 313 313 314 316 316 316 313 312 310 308 310 311 309 314 322 322 324 320 321 319 310 291 283
302 312 317 318 320 320 320 320 318 318 319 319 319 318 319 320 319 316 311 311 310 311 313 313 313 316 316 314 313 315 315 315 319 325 330 329 326 325 325 330 330 311 288
297 305 308 313 316 317 318 319 320 319 318 318 318 319 320 321 321 320 316 315 313 311 310 309 310 311 312 313 314 318 323 331 328 331 325 325 327 336 343 342 331 327 309
293 296 303 309 312 315 317 320 321 324 322 322 321 320 318 317 318 319 319 316 314 312 311 310 310 310 312 314 320 321 320 327 336 335 337 341 343 352 350 342 321 320 303
278 288 296 305 311 316 319 321 322 323 322 323 323 320 319 318 316 312 311 309 312 310 308 308 308 312 315 318 321 327 315 319 329 334 334 336 345 354 359 18 39 346 138
268 281 294 305 311 317 320 320 320 320 321 321 320 317 315 313 311 300 301 299 301 303 297 299 303 305 309 313 314 317 321 328 334 341 345 349 353 351 5 38 106 56 146
266 281 294 301 308 312 313 315 318 320 318 317 316 313 311 309 305 295 297 295 294 294 288 292 293 295 303 307 307 308 307 310 317 327 349 6 36 52 63 80 84 336 297
267 282 291 297 302 306 309 311 314 317 317 318 318 315 312 309 299 291 292 291 290 287 286 286 287 286 288 293 293 295 298 301 308 313 305 294 292 294 296 300 303 302 303
272 285 295 299 301 303 305 307 311 314 315 317 318 318 318 309 301 299 293 287 288 287 282 274 279 281 279 281 281 283 283 285 290 295 297 295 292 294 297 301 301 299 300
277 288 293 296 298 301 303 306 311 313 314 316 317 317 315 309 304 302 298 292 286 285 282 277 276 275 273 270 269 270 272 277 281 285 286 288 289 291 293 294 293 291 290
280 288 291 293 297 300 304 308 310 312 312 312 313 312 308 300 301 298 294 289 287 285 283 278 275 272 268 265 264 265 268 270 272 275 278 282 285 288 288 287 287 287 286
281 286 289 294 298 300 303 307 310 310 312 312 312 309 304 301 300 297 293 291 289 287 284 279 274 269 265 262 261 262 264 269 273 274 279 285 289 290 289 287 284 280 277
278 283 289 294 296 300 305 308 309 310 310 309 307 307 306 304 301 298 295 292 290 288 285 281 275 270 265 262 262 265 269 272 273 277 284 291 292 289 286 280 274 270 269
274 282 287 292 297 302 306 308 309 308 306 305 305 305 306 306 304 301 298 294 291 287 284 280 278 275 271 267 264 264 268 271 276 279 285 289 287 281 273 265 263 264 265
277 284 290 295 301 305 307 308 307 306 304 304 303 304 305 303 303 302 299 296 292 288 285 282 281 279 278 276 273 270 269 273 277 281 284 283 278 269 266 265 263 262 263
280 286 292 296 300 303 304 305 306 305 303 302 302 302 301 300 299 298 296 294 292 289 286 284 282 281 280 279 278 277 277 278 280 282 280 275 266 263 263 263 263 262 261